DB0LC-2 Weather Reports


Display with metric or nautical units.
time (UTC)temp
F
wind
direction
speed
MPH
gust
MPH
rain 1hr
in
rain 24hr
in
rain mn
in
humidity
%
barometer
mb
20260903203609 68 0 0.0 0.0 0.00 0.00 0.00 59 920.8
20260903202545 68 0 0.0 0.0 0.00 0.00 0.00 59 920.8
20260903201530 68 0 0.0 0.0 0.00 0.00 0.00 55 920.7
20260903200457 68 0 0.0 0.0 0.00 0.00 0.00 59 920.5
20260903200455 68 0 0.0 0.0 0.00 0.00 0.00 59 920.5
20260903195405 68 0 0.0 0.0 0.00 0.00 0.00 57 920.4
20260903194340 68 0 0.0 0.0 0.00 0.00 0.00 59 920.3
20260903193328 68 0 0.0 0.0 0.00 0.00 0.00 58 920.3
20260903192302 68 0 0.0 0.0 0.00 0.00 0.00 59 920.3
20260903191254 68 0 0.0 0.0 0.00 0.00 0.00 59 920.2
20260903190229 68 0 0.0 0.0 0.00 0.00 0.00 57 920.2
20260903185206 68 0 0.0 0.0 0.00 0.00 0.00 59 920.1
20260903184123 68 0 0.0 0.0 0.00 0.00 0.00 56 919.9
20260903183118 68 0 0.0 0.0 0.00 0.00 0.00 59 920.0
20260903182100 68 0 0.0 0.0 0.00 0.00 0.00 57 919.8
20260903180039 68 0 0.0 0.0 0.00 0.00 0.00 59 919.7
20260903175021 68 0 0.0 0.0 0.00 0.00 0.00 57 919.6
20260903174017 68 0 0.0 0.0 0.00 0.00 0.00 59 919.7
20260903172947 68 0 0.0 0.0 0.00 0.00 0.00 56 919.6
20260903170827 68 0 0.0 0.0 0.00 0.00 0.00 57 919.7
20260903165813 68 0 0.0 0.0 0.00 0.00 0.00 60 919.9
20260903165810 68 0 0.0 0.0 0.00 0.00 0.00 60 919.8
20260903164741 68 0 0.0 0.0 0.00 0.00 0.00 58 919.8
20260903162628 68 0 0.0 0.0 0.00 0.00 0.00 59 919.6
20260903161627 68 0 0.0 0.0 0.00 0.00 0.00 57 919.8
20260903160541 68 0 0.0 0.0 0.00 0.00 0.00 59 919.8
20260903155514 68 0 0.0 0.0 0.00 0.00 0.00 56 919.8
20260903154504 68 0 0.0 0.0 0.00 0.00 0.00 59 919.8
20260903153436 68 0 0.0 0.0 0.00 0.00 0.00 57 919.7
20260903152337 68 0 0.0 0.0 0.00 0.00 0.00 59 919.8
20260903151258 68 0 0.0 0.0 0.00 0.00 0.00 57 919.9
20260903150245 68 0 0.0 0.0 0.00 0.00 0.00 59 919.9
20260903145233 68 0 0.0 0.0 0.00 0.00 0.00 59 919.9
20260903144207 69 0 0.0 0.0 0.00 0.00 0.00 59 919.9
20260903143131 68 0 0.0 0.0 0.00 0.00 0.00 59 920.0
20260903142057 68 0 0.0 0.0 0.00 0.00 0.00 56 919.9
20260903141029 68 0 0.0 0.0 0.00 0.00 0.00 59 920.0
20260903134929 68 0 0.0 0.0 0.00 0.00 0.00 59 920.1
20260903132812 68 0 0.0 0.0 0.00 0.00 0.00 59 920.0
20260903131723 68 0 0.0 0.0 0.00 0.00 0.00 58 920.0
20260903131721 68 0 0.0 0.0 0.00 0.00 0.00 58 920.0
20260903130714 68 0 0.0 0.0 0.00 0.00 0.00 59 920.0
20260903125644 68 0 0.0 0.0 0.00 0.00 0.00 59 920.1
20260903124556 68 0 0.0 0.0 0.00 0.00 0.00 55 920.1
20260903123524 68 0 0.0 0.0 0.00 0.00 0.00 59 920.1
20260903122459 68 0 0.0 0.0 0.00 0.00 0.00 57 920.2
20260903121441 68 0 0.0 0.0 0.00 0.00 0.00 59 920.4
20260903115403 68 0 0.0 0.0 0.00 0.00 0.00 59 920.5
20260903114329 68 0 0.0 0.0 0.00 0.00 0.00 59 920.5
20260903113318 68 0 0.0 0.0 0.00 0.00 0.00 56 920.6
20260903112305 68 0 0.0 0.0 0.00 0.00 0.00 59 920.6
20260903111303 68 0 0.0 0.0 0.00 0.00 0.00 58 920.7
20260903110251 68 0 0.0 0.0 0.00 0.00 0.00 59 920.6
20260903105237 68 0 0.0 0.0 0.00 0.00 0.00 59 920.7
20260903104205 68 0 0.0 0.0 0.00 0.00 0.00 56 920.4
20260903102117 68 0 0.0 0.0 0.00 0.00 0.00 58 920.6
20260903101050 69 0 0.0 0.0 0.00 0.00 0.00 59 920.5
20260903100011 68 0 0.0 0.0 0.00 0.00 0.00 59 920.7
20260903094946 68 0 0.0 0.0 0.00 0.00 0.00 57 920.6
20260903093910 68 0 0.0 0.0 0.00 0.00 0.00 59 920.6
20260903092836 68 0 0.0 0.0 0.00 0.00 0.00 59 920.7
20260903091807 68 0 0.0 0.0 0.00 0.00 0.00 56 920.5
20260903090801 68 0 0.0 0.0 0.00 0.00 0.00 59 920.8
20260903085742 68 0 0.0 0.0 0.00 0.00 0.00 58 920.9
20260903083725 68 0 0.0 0.0 0.00 0.00 0.00 59 920.5
20260903083723 68 0 0.0 0.0 0.00 0.00 0.00 59 920.5
20260903081642 68 0 0.0 0.0 0.00 0.00 0.00 59 920.3
20260903080614 68 0 0.0 0.0 0.00 0.00 0.00 59 920.5
20260903075602 68 0 0.0 0.0 0.00 0.00 0.00 55 920.4
20260903074537 68 0 0.0 0.0 0.00 0.00 0.00 59 920.5
20260903073530 68 0 0.0 0.0 0.00 0.00 0.00 59 920.5
20260903073528 68 0 0.0 0.0 0.00 0.00 0.00 59 920.5
20260903072500 68 0 0.0 0.0 0.00 0.00 0.00 55 920.4
20260903070352 68 0 0.0 0.0 0.00 0.00 0.00 59 920.8
20260903070350 68 0 0.0 0.0 0.00 0.00 0.00 59 920.9
20260903065313 69 0 0.0 0.0 0.00 0.00 0.00 58 920.8
20260903064220 68 0 0.0 0.0 0.00 0.00 0.00 59 920.7
20260903063139 67 0 0.0 0.0 0.00 0.00 0.00 58 920.6
20260903063136 67 0 0.0 0.0 0.00 0.00 0.00 58 920.6
20260903062109 68 0 0.0 0.0 0.00 0.00 0.00 59 920.3
20260903061044 68 0 0.0 0.0 0.00 0.00 0.00 59 920.3
20260903060017 67 0 0.0 0.0 0.00 0.00 0.00 58 920.2
20260903053927 68 0 0.0 0.0 0.00 0.00 0.00 59 920.0
20260903052916 68 0 0.0 0.0 0.00 0.00 0.00 57 920.1
20260903051901 68 0 0.0 0.0 0.00 0.00 0.00 59 920.0
20260903050902 68 0 0.0 0.0 0.00 0.00 0.00 60 920.1
20260903045819 68 0 0.0 0.0 0.00 0.00 0.00 56 920.0
20260903043733 68 0 0.0 0.0 0.00 0.00 0.00 60 919.7
20260903042727 68 0 0.0 0.0 0.00 0.00 0.00 56 919.7
20260903041711 68 0 0.0 0.0 0.00 0.00 0.00 59 919.7
20260903040658 68 0 0.0 0.0 0.00 0.00 0.00 59 919.6
20260903035638 68 0 0.0 0.0 0.00 0.00 0.00 54 919.6
20260903034556 68 0 0.0 0.0 0.00 0.00 0.00 59 919.6
20260903033534 67 0 0.0 0.0 0.00 0.00 0.00 59 919.8
20260903032446 68 0 0.0 0.0 0.00 0.00 0.00 56 919.6
20260903032443 68 0 0.0 0.0 0.00 0.00 0.00 56 919.7
20260903031405 68 0 0.0 0.0 0.00 0.00 0.00 59 919.7
20260903030328 67 0 0.0 0.0 0.00 0.00 0.00 58 919.8
20260903025306 68 0 0.0 0.0 0.00 0.00 0.00 59 919.6
20260903024203 68 0 0.0 0.0 0.00 0.00 0.00 59 919.7
20260903022149 68 0 0.0 0.0 0.00 0.00 0.00 59 919.8
20260903021101 67 0 0.0 0.0 0.00 0.00 0.00 59 919.8
20260903020013 68 0 0.0 0.0 0.00 0.00 0.00 58 919.7
20260903014939 68 0 0.0 0.0 0.00 0.00 0.00 59 919.8
20260903013934 67 0 0.0 0.0 0.00 0.00 0.00 58 919.7
20260903012909 68 0 0.0 0.0 0.00 0.00 0.00 59 919.9
20260903011910 68 0 0.0 0.0 0.00 0.00 0.00 59 919.8
20260903010857 68 0 0.0 0.0 0.00 0.00 0.00 56 919.8
20260903005833 68 0 0.0 0.0 0.00 0.00 0.00 59 919.7
20260903004820 68 0 0.0 0.0 0.00 0.00 0.00 59 919.8
20260903001736 68 0 0.0 0.0 0.00 0.00 0.00 59 919.7
20260903000655 68 0 0.0 0.0 0.00 0.00 0.00 58 919.6
20260902235629 68 0 0.0 0.0 0.00 0.00 0.00 59 919.7
20260902234619 68 0 0.0 0.0 0.00 0.00 0.00 58 919.7
20260902232518 68 0 0.0 0.0 0.00 0.00 0.00 59 919.8
20260902231505 68 0 0.0 0.0 0.00 0.00 0.00 55 919.8
20260902230438 68 0 0.0 0.0 0.00 0.00 0.00 59 919.8
20260902225425 68 0 0.0 0.0 0.00 0.00 0.00 59 919.9
20260902224403 68 0 0.0 0.0 0.00 0.00 0.00 57 919.8
20260902224401 68 0 0.0 0.0 0.00 0.00 0.00 57 919.9
20260902223322 68 0 0.0 0.0 0.00 0.00 0.00 59 920.0
20260902221238 68 0 0.0 0.0 0.00 0.00 0.00 59 919.8
20260902221236 68 0 0.0 0.0 0.00 0.00 0.00 59 919.8
20260902220213 68 0 0.0 0.0 0.00 0.00 0.00 59 919.8
20260902215131 68 0 0.0 0.0 0.00 0.00 0.00 57 919.7
20260902214056 68 0 0.0 0.0 0.00 0.00 0.00 59 919.7
20260902213017 68 0 0.0 0.0 0.00 0.00 0.00 57 919.6
20260902212005 68 0 0.0 0.0 0.00 0.00 0.00 59 919.6
20260902210942 68 0 0.0 0.0 0.00 0.00 0.00 59 919.6
20260902205918 68 0 0.0 0.0 0.00 0.00 0.00 57 919.5